Flag for Slovakia Weather past 2 weeks in Prešov, Slovakia

32 °F

Mostly cloudy.

Feels Like: 26 °F
Forecast: 27 / 43 °F
Wind: 6 mph from Southeast

Location: Kosice - Barca

Current Time: Nov 29, 2015 at 6:41:21 AM

Latest Report: Nov 29, 2015 at 6:00 AM

Visibility: 0 mi

Pressure: 30.01 "Hg

Humidity: 100%

Dew point: 32 °F

Location of PrešovLocation

Historic Weather in Prešov — Graph


Prešov temperature yesterday

Maximum temperature yesterday: 36 °F (at 6:00 AM)
Minimum temperature yesterday: 32 °F (at 12:00 AM)
Average temperature yesterday: 33 °F

Past Weeks' High & Low Weather Summary

High63 °F (Nov 18, 1:00 PM)100% (Nov 14, 5:00 AM)30.33 "Hg (Nov 14, 5:00 AM)
Low19 °F (Nov 25, 4:30 AM)48% (Nov 24, 12:30 PM)29.27 "Hg (Nov 21, 3:00 AM)
Average40 °F83%29.88 "Hg
* Reported Nov 14 5:00 AM — Nov 29 5:30 AM, Prešov, Weather by CustomWeather, © 2015

Note: Actual official high and low records may vary slightly from our data, if they occured in-between our weather recording intervals... More about our weather records


Prešov weather history for previous 24 hours

Time TempWeatherWind HumidityBarometerVisibility
5:30 AM
Sun, Nov 29
32 °FIce fog.2 mph100%30.01 "Hg3 mi
5:00 AM32 °FMostly cloudy.5 mph100%29.98 "Hg4 mi
4:30 AM34 °FLow clouds.6 mph93%29.98 "HgN/A
4:00 AM32 °FPassing clouds.2 mph93%29.98 "HgN/A
3:30 AM34 °FLow clouds.5 mph93%29.98 "HgN/A
3:00 AM34 °FLight rain. Mostly cloudy.5 mph93%29.98 "HgN/A
2:30 AM32 °FLight rain. Clear.3 mph100%29.98 "HgN/A
2:00 AM34 °FLight rain. Low clouds.2 mph93%29.95 "HgN/A
1:30 AM34 °FLight rain. Mostly cloudy.3 mph93%29.95 "HgN/A
1:00 AM34 °FMostly cloudy.3 mph93%29.95 "HgN/A
12:30 AM34 °FLight snow. Mostly cloudy.2 mph93%29.92 "Hg4 mi
12:00 AM32 °FLight snow. Overcast.2 mph100%29.92 "HgN/A
11:00 PM
Sat, Nov 28
32 °FMostly cloudy.5 mph100%29.92 "HgN/A
10:30 PM32 °FLight snow. Passing clouds.5 mph93%29.89 "Hg4 mi
10:00 PM32 °FLight snow. Ice fog.2 mph100%29.89 "Hg3 mi
9:30 PM32 °FLight snow. Ice fog.5 mph100%29.89 "Hg2 mi
9:00 PM32 °FSnow. Ice fog.3 mph100%29.89 "Hg2 mi
8:30 PM32 °FLight snow. Ice fog.3 mph100%29.89 "Hg1 mi
8:00 PM32 °FLight snow. Ice fog.3 mph100%29.86 "Hg1 mi
7:30 PM32 °FLight snow. Ice fog.2 mph100%29.86 "Hg1 mi
7:00 PM32 °FLight snow. Ice fog.1 mph100%29.83 "Hg1 mi
6:30 PM32 °FLight snow. Ice fog.2 mph100%29.83 "Hg1 mi
6:00 PM32 °FLight snow. Ice fog.3 mph100%29.83 "Hg1 mi
5:30 PM32 °FLight snow. Ice fog.1 mph100%29.80 "Hg1 mi
5:00 PM32 °FLight snow. Ice fog.1 mph100%29.80 "Hg1 mi
4:30 PM32 °FLight snow. Ice fog.3 mph100%29.80 "Hg1 mi
4:00 PM32 °FLight snow. Ice fog.2 mph100%29.77 "Hg1 mi
3:30 PM32 °FLight snow. Ice fog.3 mph100%29.77 "Hg1 mi
3:00 PM32 °FLight snow. Ice fog.3 mph100%29.77 "Hg1 mi
2:30 PM32 °FLight snow. Ice fog.3 mph100%29.77 "Hg1 mi
2:00 PM34 °FLight snow. Fog.6 mph93%29.77 "Hg1 mi
1:30 PM34 °FLight rain. Fog.5 mph100%29.74 "Hg2 mi
1:00 PM34 °FLight rain. Fog.6 mph100%29.74 "Hg2 mi
12:30 PM36 °FLight rain. Fog.6 mph93%29.74 "Hg2 mi
12:00 PM36 °FMixture of precip. Mostly cloudy.2 mph93%29.74 "Hg5 mi
11:30 AM36 °FLight rain. Overcast.7 mph93%29.74 "HgN/A
11:00 AM36 °FLight rain. Overcast.5 mph93%29.74 "HgN/A
10:30 AM36 °FLight rain. Overcast.2 mph93%29.74 "HgN/A
10:00 AM36 °FLight rain. Overcast.2 mph93%29.74 "HgN/A
9:30 AM36 °FLight rain. Overcast.7 mph93%29.74 "HgN/A
9:00 AM36 °FLight rain. Overcast.5 mph93%29.74 "HgN/A
8:30 AM34 °FLight rain. More clouds than sun.6 mph93%29.74 "HgN/A
8:00 AM34 °FMore clouds than sun.7 mph93%29.74 "HgN/A
7:30 AM34 °FLight rain. More clouds than sun.7 mph93%29.74 "HgN/A
7:00 AM34 °FLight rain. Mostly cloudy.7 mph93%29.74 "HgN/A
6:30 AM36 °FLight rain. Overcast.8 mph81%29.74 "HgN/A
6:00 AM36 °FLight rain. Passing clouds.9 mph75%29.77 "HgN/A
Weather by CustomWeather, © 2015

See weather overviewHow to use our weather pages